Location: Greenhawk Observatory
(37.3417°N, 122.0298°W)
Time: 04:40:41
(UTC-07:00)

Daily predictions for brighter satellites

Satellite Brightness Start Highest point End
(mag) Time Altitude Azimuth Time Altitude Azimuth Time Altitude Azimuth
Cosmos 2360 Rocket 4.4 03:24:41 20° ENE 03:24:41 20° ENE 03:27:10 10° NE
SL-16 R/B 4.3 03:32:29 23° N 03:32:29 23° N 03:34:37 10° N
Okean O Rocket 3.7 04:06:11 10° NE 04:09:24 23° E 04:09:24 23° E
ADEOS Rocket 4.0 04:10:39 10° N 04:13:41 33° N 04:13:41 33° N
CENTAUR R/B 3.9 04:17:40 27° NNW 04:17:40 27° NNW 04:22:30 10° NNE
USA 215 4.2 04:14:29 10° ESE 04:20:39 45° NE 04:26:49 10° NW
FALCON 9 R/B 4.4 04:23:32 48° W 04:28:43 73° SSW 05:17:41 10° ESE
Cosmos 2184 Rocket 4.2 04:23:04 10° N 04:29:16 68° E 04:31:55 36° SSE
Lacrosse 4 Rocket 3.2 04:28:17 11° N 04:31:55 31° ENE 04:35:45 10° ESE
Cosmos 2322 Rocket 3.7 04:37:10 23° NNW 04:37:10 23° NNW 04:40:04 10° N
SL-16 R/B 3.7 04:41:46 23° NNW 04:41:46 23° NNW 04:44:51 10° N
Cosmos 2237 4.3 04:42:01 64° SSE 04:42:42 72° ESE 04:48:26 10° NNE
COSMOS 2428 3.1 04:45:15 45° SSE 04:46:44 60° ESE 04:52:18 10° NNE
Cosmos 2219 Rocket 3.6 04:45:23 16° SSE 04:49:08 33° ESE 04:54:05 10° NE
Cosmos 1536 Rocket 3.8 04:49:39 67° ENE 04:49:39 67° ENE 04:53:49 10° NNE
IRS-1C Rocket 4.5 04:45:53 10° NNE 04:51:06 60° ESE 04:53:13 34° SSE
CZ-2D R/B 4.1 04:52:52 10° NNW 04:54:44 17° NW 04:54:44 17° NW
Resurs 1-4 Rocket 4.1 04:53:49 10° NNW 04:55:06 14° NW 04:55:06 14° NW
Cosmos 1844 Rocket 3.9 04:53:53 10° N 04:59:09 41° ENE 05:04:22 10° SE
Cosmos 2154 Rocket 4.3 04:56:55 10° N 05:03:05 66° E 05:09:14 10° SSE
MOS 1 Rocket 3.8 04:58:47 10° N 05:02:24 44° NNW 05:02:24 44° NNW
Tiangong 2 2.9 05:05:02 31° NE 05:05:02 31° NE 05:07:12 10° E
PSLV R/B 3.8 05:01:43 10° NNE 05:06:03 69° ESE 05:07:22 43° S
Cosmos 2360 Rocket 2.7 05:06:28 41° WNW 05:06:28 41° WNW 05:11:42 10° N
Cosmos 1777 Rocket 4.3 05:01:50 10° NNW 05:13:37 - S 05:05:58 48° WNW
Cosmos 1340 4.2 05:10:57 26° NNW 05:10:57 26° NNW 05:12:53 10° N
Cosmos 1238 Rocket 3.3 05:12:56 40° NE 05:12:56 40° NE 05:15:03 10° NNE
DELTA 2 R/B (1) 3.5 05:12:48 52° W 05:14:13 87° NNW 05:19:47 10° ENE
Cosmos 2237 Rocket 3.8 05:10:42 10° SSE 05:15:40 32° ESE 05:20:41 10° NE
CZ-4B R/B 3.4 05:14:58 10° N 05:17:35 40° NNW 05:17:35 40° NNW
Meteor 2-4 Rocket 4.5 05:13:34 10° SSE 05:18:59 51° E 05:24:17 10° NNE
Cosmos 1666 4.1 05:16:45 10° N 05:20:24 39° E 05:24:04 10° SSE
Cosmos 2181 Rocket 4.4 05:15:26 10° S 05:21:31 64° E 05:27:43 10° NNE
Cosmos 1610 Rocket 4.4 05:16:24 10° NNW 05:22:36 64° W 05:28:49 10° S
Nadezhda 1 Rocket 4.1 05:20:46 36° SW 05:22:51 51° W 05:28:45 10° N
ADEOS II 2.0 05:18:10 10° N 05:23:25 70° WNW 05:26:14 28° SSW
Cosmos 1743 2.7 05:21:40 10° N 05:25:32 83° E 05:29:22 10° S
ATLAS 5 CENTAUR R/B 4.1 05:23:47 10° NNW 05:29:13 34° NE 05:35:03 10° ESE
PAYLOAD B 4.3 05:24:57 10° N 05:30:27 58° WNW 05:33:41 25° SW
Aureole 2 Rocket 4.4 05:27:28 10° SSE 05:30:45 29° ESE 05:33:49 10° NE
Meteor 1-31 Rocket 3.6 05:27:40 10° NNE 05:31:22 49° E 05:35:03 10° S
CZ-2C R/B 3.6 05:28:42 10° S 05:33:18 71° WSW 05:37:50 10° NNW
Cosmos 2333 Rocket 2.5 05:29:00 10° S 05:34:37 67° ESE 05:40:19 10° NNE
EO 1 Del DPAF 3.4 05:34:27 30° SSW 05:36:00 49° W 05:39:46 10° NNW
ISS -1.7 05:40:49 16° S 05:40:49 16° S 05:41:43 10° S
Cosmos 2341 Rocket 3.9 05:36:11 10° N 05:42:26 81° W 05:48:38 10° S
Okean O Rocket 2.5 05:42:15 10° N 05:46:04 28° WNW 05:46:52 27° W
Hubble Space Telescope 3.2 05:44:54 10° S 05:46:42 12° SSE 05:48:29 10° SE
Meteor PRIRODA 3.7 05:50:04 10° N 05:53:45 55° WNW 05:57:00 13° SSW
Cosmos 1867 4.4 05:51:10 10° NNW 05:56:30 54° NE 06:01:48 10° SE
Gblst 52 Del rocket 4.3 05:51:41 10° NW 05:57:29 77° SW 06:04:04 10° SE
Cosmos 1025 Rocket 2.9 05:53:25 10° S 05:57:46 77° W 06:02:11 10° N
Okean-O 2.5 05:53:53 10° N 05:58:21 80° WNW 06:02:45 10° SSW
Iridium 2 4.1 05:54:51 10° N 05:58:40 66° E 06:02:27 10° S
USA 215 3.4 05:57:11 10° SSE 06:03:32 51° SW 06:09:55 10° NW
Cosmos 1844 3.6 05:59:01 10° NNW 06:04:46 74° WSW 06:10:25 10° SSE
Cosmos 1892 Rocket 4.1 06:00:33 10° S 06:04:48 60° E 06:09:07 10° NNE
Cosmos 371 Rocket 4.5 06:00:24 10° S 06:05:00 46° ESE 06:09:39 10° NNE
Cosmos 332 Rocket 4.2 06:03:20 10° S 06:08:11 68° ESE 06:13:04 10° NNE
Lacrosse 4 Rocket 2.7 06:07:16 10° WNW 06:10:25 20° WSW 06:13:36 10° SSW
GPS 2-04 Rocket1 3.8 06:07:39 13° SW 06:10:43 33° SSE 06:14:09 10° E
CZ-4B R/B 4.2 06:06:14 10° N 06:10:57 28° WNW 06:15:26 11° WSW
USA 116 4.1 06:07:07 10° S 06:11:06 52° W 06:15:38 10° NNW
SL-16 R/B 3.6 06:06:10 10° S 06:11:23 40° ESE 06:16:39 10° NE
Thor Agena Rocket 3.5 06:06:30 10° SSE 06:11:34 87° WSW 06:16:38 10° NNW
NOSS 0 Rocket 3.9 06:06:01 10° SSW 06:12:10 70° WNW 06:18:20 10° NNE
ERS-2 2.7 06:09:12 10° N 06:12:37 36° WNW 06:16:01 10° SW
Cosmos 2285 Rocket 4.1 06:07:22 10° SSW 06:13:42 61° WNW 06:20:05 10° N
SJ-6F 4.3 06:10:30 10° N 06:14:33 68° WNW 06:18:36 10° SSW
USA 229 DEB 3.9 06:08:21 10° SW 06:15:01 56° NW 06:21:50 10° NNE
USA 229 3.9 06:08:26 10° SW 06:15:07 56° NW 06:21:56 10° NNE
OAO 3 Copernicus 4.4 06:11:41 15° W 06:15:49 68° S 06:20:48 10° E
Cosmos 2150 Rocket 4.0 06:13:28 10° NNW 06:18:47 84° WSW 06:24:09 10° SSE
Cosmos 1980 3.8 06:16:43 10° SW 06:22:16 60° WNW 06:27:53 10° NNE
Cosmos 990 Rocket 4.1 06:18:08 10° NNW 06:23:20 80° ENE 06:28:29 10° SSE
BREEZE-M DEB (TANK) 4.5 06:20:54 12° W 06:24:57 54° NNW 06:44:14 10° ENE
Cosmos 468 Rocket 4.5 06:21:12 10° SW 06:26:02 40° WNW 06:30:57 10° N
Cosmos 1959 Rocket 4.4 06:20:51 10° NNW 06:26:56 71° W 06:33:01 10° S
Cosmos 1898 Rocket 3.6 06:22:15 10° NNW 06:27:16 51° WSW 06:32:16 10° S
NOSS 3-1 (A) 4.0 06:21:49 10° SSW 06:27:23 58° ESE 06:33:33 10° NE
NOSS 3-1 (C) 3.5 06:24:45 10° SSW 06:30:27 85° ESE 06:36:48 10° NNE
COSMOS 2428 4.1 06:27:24 10° W 06:31:24 19° NW 06:35:25 10° N
Meteor 1-28 Rocket 3.4 06:28:43 10° SSE 06:32:30 77° ENE 06:36:20 10° N
Cosmos 2219 Rocket 3.0 06:28:08 10° WSW 06:33:02 31° WNW 06:37:58 10° N
Cosmos 405 3.9 06:32:32 10° N 06:36:01 54° E 06:39:29 10° SSE
OTV 4 2.4 06:34:26 10° SSW 06:36:39 21° SSE 06:38:51 10° ESE
Ariane Rocket 3.8 06:33:41 10° NNE 06:38:41 58° ESE 06:43:38 10° S
SKYMED 2 3.5 06:34:51 10° S 06:39:09 69° WSW 06:43:29 10° NNW
Cosmos 2366 rocket 4.1 06:33:09 10° NNW 06:39:25 64° W 06:45:40 10° S
Cosmos 2058 Rocket 3.1 06:36:29 10° N 06:40:58 79° W 06:45:23 10° S
